CST,Max TemperatureF,Mean TemperatureF,Min TemperatureF,Max Dew PointF,MeanDew PointF,Min DewpointF,Max Humidity, Mean Humidity, Min Humidity, Max Sea Level PressureIn, Mean Sea Level PressureIn, Min Sea Level PressureIn, Max VisibilityMiles, Mean VisibilityMiles, Min VisibilityMiles, Max Wind SpeedMPH, Mean Wind SpeedMPH, Max Gust SpeedMPH,PrecipitationIn, CloudCover, Events, WindDirDegrees
2012-1-1,42,36,30,30,13,-17,70,44,8,30.54,30.32,29.94,10,10,10,30,16,45,0.00,2,,316
2012-1-2,32,22,10,10,3,-6,73,43,20,30.63,30.58,30.55,10,10,10,20,10,29,0.00,2,,325
2012-1-3,48,28,8,25,10,3,85,51,24,30.51,30.20,29.97,10,10,10,24,8,29,0.00,2,,194
2012-1-4,51,38,24,27,23,18,80,55,26,30.28,30.17,30.03,10,10,10,15,7,20,0.00,1,,286
2012-1-5,66,45,24,28,21,10,80,48,11,30.10,29.95,29.77,10,10,10,15,3,,0.00,1,,221
2012-1-6,57,40,24,30,25,19,80,59,26,29.98,29.81,29.70,10,10,10,18,6,25,0.00,1,,344
2012-1-7,44,30,17,23,18,10,86,62,34,30.25,30.16,30.06,10,10,10,7,1,,0.00,1,,331
2012-1-8,46,32,19,27,20,16,86,65,31,30.36,30.30,30.27,10,10,10,5,1,,0.00,2,,74
2012-1-9,53,35,17,27,19,12,86,61,22,30.28,30.18,30.08,10,10,10,14,3,,0.00,1,,234
2012-1-10,55,37,19,27,20,16,86,61,26,30.05,29.96,29.82,10,10,10,13,3,16,0.00,1,,197
2012-1-11,39,30,21,30,21,10,86,72,54,29.97,29.76,29.61,10,9,1,32,8,44,0.00,5,Snow,353
2012-1-12,19,14,8,9,3,-2,73,60,53,30.00,29.98,29.94,10,9,4,24,17,36,0.00,6,Snow,328
2012-1-13,28,16,3,5,-1,-11,78,55,19,30.12,30.06,30.03,10,10,10,9,6,,0.00,1,,286
2012-1-14,44,32,19,25,15,9,74,55,27,30.17,30.06,29.84,10,10,10,15,5,20,0.00,4,,313
2012-1-15,57,37,17,21,17,12,80,47,17,30.14,29.93,29.75,10,10,10,26,9,31,0.00,1,,176
2012-1-16,44,34,24,27,23,16,80,60,46,29.84,29.73,29.68,10,10,10,17,6,23,0.00,4,,16
2012-1-17,24,11,-2,16,6,-8,86,70,54,30.37,30.22,29.85,10,8,0,20,11,26,0.06,3,Snow,329
2012-1-18,33,13,-7,19,9,-13,79,69,55,30.32,30.04,29.82,10,10,10,20,7,26,0.00,2,Snow,199
2012-1-19,21,12,3,12,-3,-8,73,57,44,30.18,30.09,29.93,10,10,10,20,13,24,0.00,2,,31
2012-1-20,15,12,8,5,2,-4,73,61,53,30.16,30.01,29.93,10,10,10,14,9,18,0.00,4,,63
2012-1-21,24,15,6,18,9,1,79,72,67,30.23,30.09,29.81,10,9,2,16,8,21,0.00,6,Snow,118
2012-1-22,48,36,24,39,31,19,93,81,71,29.68,29.49,29.38,7,4,1,20,12,28,0.00,7,Rain-Snow,135
2012-1-23,32,26,19,25,22,16,86,73,64,30.04,29.84,29.56,10,10,5,18,12,25,0.00,7,Snow,306
2012-1-24,39,26,12,28,18,9,86,76,65,30.27,30.18,30.08,10,10,7,10,3,,0.00,1,,101
2012-1-25,46,37,26,30,28,21,86,70,53,30.21,30.10,29.95,10,9,5,10,4,,0.00,4,,192
2012-1-26,50,34,17,30,23,14,86,69,43,29.94,29.90,29.85,10,8,3,22,5,29,0.00,2,,304
2012-1-27,41,31,21,28,23,18,86,69,45,30.06,29.94,29.90,10,10,10,20,3,26,0.00,3,,81
2012-1-28,46,32,19,18,12,0,80,51,15,30.27,30.22,30.17,10,10,10,25,10,32,0.00,1,,267
2012-1-29,42,30,19,18,11,3,68,46,22,30.27,30.18,30.05,10,10,10,10,4,,0.00,2,,190
2012-1-30,69,51,33,28,19,3,60,36,7,29.96,29.83,29.75,10,10,10,18,11,24,0.00,1,,209
2012-1-31,60,45,30,37,29,23,93,59,25,30.02,29.86,29.77,10,9,0,15,7,20,0.00,1,Fog,270